星链-4136 (STARLINK-4136 )

导读

STARLINK-4136是美国太空探索技术公司(SpaceX)星链(Starlink)卫星互联网项目中的一颗低轨道通信卫星,于2022年7月24日发射升空。它运行在近地轨道,属于星链星座组网的一部分,旨在为全球尤其是偏远地区提供高速、低延迟的宽带互联网接入服务,助力缩小全球数字鸿沟,同时也可为民用、行业应用提供卫星通信支持。

Basic Information
目录编号:
53260
目录名称:
STARLINK-4136
国际标识:
2022-086U
轨道中心:
EARTH
卫星名称:
星链-4136
卫星全名:
星链-4136 (STARLINK-4136 )
卫星状态:
已陨落 最后检测时间 2025-06-04
发射日期:
2022-07-24 UTC
国别 :
美国 (US)
星等 :
--
Orbit Information
数据来源 国际轨道数据
星历时间: 2025-06-04T06:54:53+0800
轨道信息已过期378天
半长轴: 6524.311km
偏心率: 0.0005646
轨道倾角: 53.205°
近地点辐角 258.360°
升交点赤经 340.782°
平近点角 252.677°
近地点: 142.492km
远地点: 149.86km
周期: 87.410分钟
每日圈数: 16.474068
Detailed Information
固有亮度:
5
最大亮度:
2.5
卫星平台:
Starlink v1.5
覆盖范围:
全球
运营商:
太空探索技术公司
运营商所在国:
美国
制造商(研发单位):
太空探索技术公司
制造商所在国:
美国
使用方式:
暂无
Satellite Introduction
星链(Starlink)计划是由太空探索技术公司(SpaceX)提出的一个巨型低轨卫星互联网星座项目,计划在2019年至2024年间在太空搭建由约1.2万颗卫星组成的“星链”网络,其中1584颗将部署在地球上空550千米处的近地轨道,并从2020年开始工作。该卫星仍在工作。